CST,Max TemperatureF,Mean TemperatureF,Min TemperatureF,Max Dew PointF,MeanDew PointF,Min DewpointF,Max Humidity, Mean Humidity, Min Humidity, Max Sea Level PressureIn, Mean Sea Level PressureIn, Min Sea Level PressureIn, Max VisibilityMiles, Mean VisibilityMiles, Min VisibilityMiles, Max Wind SpeedMPH, Mean Wind SpeedMPH, Max Gust SpeedMPH,PrecipitationIn, CloudCover, Events, WindDirDegrees
2013-1-1,13,4,-6,8,-1,-8,91,72,53,30.25,30.14,29.97,10,10,10,17,8,23,T,4,,259
2013-1-2,20,16,11,11,10,8,92,80,67,30.08,30.02,29.93,10,8,2,12,6,15,T,8,Snow,199
2013-1-3,20,16,11,16,11,5,88,81,73,30.13,30.07,29.95,10,8,4,18,10,24,T,6,Snow,260
2013-1-4,32,21,10,18,12,7,92,73,54,30.17,30.04,29.97,10,10,9,17,10,25,0.00,0,,255
2013-1-5,27,14,1,17,11,0,92,78,63,30.17,30.00,29.81,10,9,7,13,4,22,0.00,1,,222
2013-1-6,27,18,9,22,17,8,92,78,63,30.22,30.04,29.82,10,9,2,13,5,18,0.01,6,Snow,285
2013-1-7,33,24,14,21,16,3,84,71,59,30.14,29.97,29.88,10,10,10,22,12,30,0.00,0,,218
2013-1-8,39,24,8,27,16,5,100,83,49,30.09,29.96,29.76,10,5,0,18,4,30,0.00,1,Fog,185
2013-1-9,34,25,16,27,21,12,84,70,56,30.42,30.08,29.78,10,10,8,30,14,41,0.00,3,,256
2013-1-10,41,27,13,32,19,11,89,60,30,30.45,30.23,29.88,10,9,5,17,7,25,0.10,2,Rain,145
2013-1-11,41,37,33,40,36,32,100,96,92,29.84,29.61,29.45,10,3,0,16,7,24,0.02,8,Fog-Rain,168
2013-1-12,44,29,13,43,24,6,100,84,68,29.99,29.67,29.41,10,9,5,30,15,41,T,8,Rain-Snow,235
2013-1-13,14,9,4,7,4,-1,83,75,67,30.18,30.01,29.93,10,8,2,16,7,21,0.01,7,Snow,287
2013-1-14,14,7,0,4,0,-4,87,76,64,30.40,30.31,30.07,10,10,6,17,8,24,T,4,,247
2013-1-15,27,13,-1,12,6,-4,87,67,46,30.37,30.18,29.82,10,10,8,18,9,26,0.00,4,,207
2013-1-16,28,20,12,22,14,2,88,72,56,30.11,29.75,29.55,10,8,2,21,12,30,0.03,6,Snow,261
2013-1-17,12,4,-4,2,-4,-10,79,66,52,30.40,30.31,30.15,10,10,9,17,7,21,0.00,2,,282
2013-1-18,29,12,-5,22,11,-9,88,79,69,30.37,29.96,29.68,10,6,1,14,4,20,0.09,7,Snow,179
2013-1-19,37,20,2,29,19,-6,92,78,63,29.92,29.64,29.48,10,6,0,30,11,41,0.02,7,Fog-Snow,264
2013-1-20,5,-2,-9,-6,-9,-14,79,67,54,30.28,30.17,29.96,10,10,10,21,10,29,0.00,2,,276
2013-1-21,-6,-12,-18,-12,-21,-26,83,66,49,30.26,30.15,30.02,10,9,3,20,11,28,T,5,,280
2013-1-22,0,-9,-19,-16,-20,-25,78,63,47,30.36,30.31,30.25,10,10,10,14,8,18,0.00,0,,257
2013-1-23,8,-4,-16,1,-7,-21,82,72,62,30.51,30.16,29.95,10,5,0,18,6,28,0.02,7,Snow,283
2013-1-24,8,-5,-18,1,-7,-22,83,64,45,30.70,30.48,30.23,10,7,1,10,3,13,0.05,4,Snow,171
2013-1-25,16,11,5,9,6,1,88,78,67,30.28,29.97,29.82,10,4,1,13,7,21,0.03,7,Snow,231
2013-1-26,20,8,-5,9,4,-9,91,74,56,30.39,30.32,30.23,10,10,10,12,5,17,T,4,,213
2013-1-27,30,25,19,27,20,8,92,70,47,30.27,30.02,29.82,10,4,1,14,7,20,0.18,8,Rain-Snow,127
2013-1-28,36,32,28,28,27,25,92,81,70,29.92,29.83,29.75,10,7,0,12,4,16,0.06,7,Fog-Snow,121
2013-1-29,36,33,29,36,31,27,100,91,82,29.76,29.57,29.46,10,6,0,16,7,22,0.20,8,Fog-Rain-Snow,333
2013-1-30,30,21,11,26,13,5,92,83,73,29.60,29.44,29.36,10,2,0,16,9,25,0.32,8,Fog-Snow,339
2013-1-31,11,5,-1,4,-1,-7,87,75,63,30.07,29.76,29.47,10,7,2,17,12,28,0.02,7,Snow,288